Location: Grand Rapids
(42.9630°N, 85.6680°W)
Time: 01:47:23
(UTC-04:00)

A-11 Canister half - Pass Details

Date: 30 May 2024
Orbit: 1524 x 1684 km, 47.3° (Epoch: 21 June)

Event Time Altitude Azimuth Distance (km) Brightness Sun altitude
Rises 17:42:08 0° 171° (S) 4,663 11.5 36.1°
Reaches altitude 10° 17:47:32 10° 146° (SE) 3,681 10.8 35.1°
Maximum altitude 17:51:09 13° 122° (ESE) 3,462 10.6 34.5°
Drops below altitude 10° 17:54:46 10° 99° (E) 3,698 10.6 33.8°
Sets 18:00:10 0° 74° (ENE) 4,705 11.1 32.8°
